Saint Paul Island, AK

8:11 AM AKDT on July 27, 2017 (GMT -0800)
Saint Paul Island

Weather History for PASN - October, 2013

Change the Weather History Date:

Wednesday, October 9, 2013

  Actual Average Record
Temperature  
Mean Temperature 46 °F 40 °F  
Max Temperature 48 °F 45 °F 50 °F (1985)
Min Temperature 44 °F 36 °F 20 °F (1982)
Degree Days  
Heating Degree Days 19 25  
Month to date heating degree days 194 217  
Since 1 July heating degree days 1829 1860  
Cooling Degree Days 0 0  
Month to date cooling degree days 0 0  
Year to date cooling degree days 0 0  
Moisture  
Dew Point 44 °F    
Average Humidity 0    
Maximum Humidity 0    
Minimum Humidity 0    
Precipitation  
Precipitation 0.32 in 0.10 in 0.87 in (2008)
Month to date precipitation 0.96 0.89  
Year to date precipitation 18.00 16.31  
Snow  
Snow 0.00 in 0.10 in - ()
Month to date snowfall 0.0 0.2  
Since 1 July snowfall 0.0 0.2  
Since 1 September snowfall 0.0 0.2  
Snow Depth 0.00 in    
Sea Level Pressure  
Sea Level Pressure 29.41 in    
Wind  
Wind Speed 22 mph (SSW)    
Max Wind Speed 31 mph    
Max Gust Speed 38 mph    
Visibility 5 miles    
Events Rain    
T = Trace of Precipitation, MM = Missing Value Source: NWS Daily Summary

Daily Weather History Graph

Daily Weather History Graph

Search for Another Location

Airport or City:

Trip Planner

Search our weather history database for the weather conditions in past years. The results will help you decide how hot, cold, wet, or windy it might be!

Date:

Astronomy

Oct. 09, 2013 Rise Set
Actual Time 9:42 AM AKDT 8:32 PM AKDT
Civil Twilight 9:04 AM AKDT 9:10 PM AKDT
Nautical Twilight 8:19 AM AKDT 9:54 PM AKDT
Astronomical Twilight 7:34 AM AKDT 10:39 PM AKDT
Moon 3:41 PM AKDT (10/9) 11:31 PM AKDT (10/9)
Length of Visible Light 12h 06m
Length of Day
10h 49m
Waxing Crescent, 27% of the Moon is Illuminated
Oct 9
Waxing Crescent
Oct 11
First Quarter
Oct 18
Full
Oct 26
Last Quarter
Nov 3
New

Hourly Weather History & Observations

Time (AKDT) Temp. Windchill Dew Point Humidity Pressure Visibility Wind Dir Wind Speed Gust Speed Precip Events Conditions
12:01 AM 44.6 °F 37.4 °F 42.8 °F 93% 29.71 in 7.0 mi SW 16.1 mph 24.2 mph 0.00 in Rain Light Rain
12:11 AM 44.6 °F 37.4 °F 42.8 °F 93% 29.71 in 6.0 mi SW 16.1 mph 26.5 mph 0.01 in Rain Light Rain
12:19 AM 44.6 °F 37.2 °F 42.8 °F 93% 29.71 in 6.0 mi SW 17.3 mph 24.2 mph 0.01 in Rain Light Rain
12:28 AM 44.6 °F 37.8 °F 42.8 °F 93% 29.71 in 6.0 mi SW 15.0 mph 24.2 mph 0.01 in Rain Light Rain
12:53 AM 45.0 °F 37.6 °F 43.0 °F 93% 29.70 in 6.0 mi SW 17.3 mph - 0.02 in Rain Light Rain
1:10 AM 44.6 °F 37.2 °F 42.8 °F 93% 29.70 in 5.0 mi SSW 17.3 mph 24.2 mph 0.00 in Rain Light Rain
1:23 AM 44.6 °F 36.4 °F 42.8 °F 93% 29.69 in 6.0 mi SW 20.7 mph 25.3 mph 0.01 in Rain Light Rain
1:35 AM 44.6 °F 36.9 °F 42.8 °F 93% 29.68 in 6.0 mi SW 18.4 mph 26.5 mph 0.01 in Rain Light Rain
1:53 AM 44.1 °F 36.2 °F 43.0 °F 96% 29.69 in 6.0 mi SW 18.4 mph 25.3 mph 0.03 in Rain Light Rain
2:05 AM 44.6 °F 35.9 °F 42.8 °F 93% 29.68 in 6.0 mi SSW 23.0 mph 28.8 mph 0.00 in Rain Light Rain
2:14 AM 44.6 °F 37.2 °F 42.8 °F 93% 29.68 in 7.0 mi SSW 17.3 mph 28.8 mph 0.01 in Rain Light Rain
2:53 AM 44.1 °F 35.9 °F 43.0 °F 96% 29.67 in 6.0 mi SSW 19.6 mph - 0.02 in Rain Light Rain
3:16 AM 44.6 °F 36.6 °F 42.8 °F 93% 29.66 in 6.0 mi SSW 19.6 mph - 0.01 in Rain Light Rain
3:45 AM 44.6 °F 36.4 °F 42.8 °F 93% 29.64 in 7.0 mi South 20.7 mph 28.8 mph 0.01 in   Overcast
3:53 AM 44.1 °F 35.7 °F 43.0 °F 96% 29.65 in 7.0 mi South 20.7 mph - 0.01 in Rain Light Rain
4:34 AM 44.6 °F 36.9 °F 42.8 °F 93% 29.62 in 7.0 mi South 18.4 mph 27.6 mph 0.00 in   Overcast
4:53 AM 44.1 °F 35.9 °F 43.0 °F 96% 29.62 in 6.0 mi South 19.6 mph - 0.00 in   Overcast
5:32 AM 44.6 °F 36.4 °F 44.6 °F 100% 29.59 in 4.0 mi South 20.7 mph 27.6 mph N/A   Overcast
5:53 AM 45.0 °F 36.9 °F 44.1 °F 97% 29.58 in 7.0 mi South 20.7 mph - N/A   Overcast
6:53 AM 45.0 °F 36.6 °F 44.1 °F 97% 29.54 in 6.0 mi South 21.9 mph 28.8 mph N/A   Overcast
7:53 AM 45.0 °F 36.9 °F 44.1 °F 97% 29.51 in 6.0 mi South 20.7 mph 27.6 mph 0.01 in Rain Light Rain
8:53 AM 45.0 °F 36.6 °F 45.0 °F 100% 29.46 in 5.0 mi South 21.9 mph 29.9 mph 0.03 in Rain Light Rain
9:53 AM 45.0 °F 36.4 °F 45.0 °F 100% 29.43 in 5.0 mi South 23.0 mph 31.1 mph 0.05 in Rain Light Rain
10:53 AM 46.0 °F 37.8 °F 46.0 °F 100% 29.39 in 5.0 mi South 23.0 mph 29.9 mph 0.02 in   Overcast
11:11 AM 46.4 °F 38.1 °F 46.4 °F 100% 29.38 in 1.8 mi South 24.2 mph - 0.00 in Rain Light Rain
11:37 AM 46.4 °F 38.3 °F 46.4 °F 100% 29.37 in 2.5 mi South 23.0 mph - 0.02 in Rain Light Rain
11:46 AM 46.4 °F 38.3 °F 46.4 °F 100% 29.37 in 3.0 mi South 23.0 mph 31.1 mph 0.04 in Rain Light Rain
11:53 AM 46.0 °F 38.0 °F 46.0 °F 100% 29.37 in 3.0 mi South 21.9 mph 29.9 mph 0.05 in Rain Light Rain
12:09 PM 46.4 °F 38.3 °F 46.4 °F 100% 29.35 in 4.0 mi South 23.0 mph 31.1 mph 0.02 in Rain Light Rain
12:53 PM 46.0 °F 37.6 °F 46.0 °F 100% 29.33 in 4.0 mi South 24.2 mph 29.9 mph 0.06 in Rain Light Rain
1:04 PM 46.4 °F 38.3 °F 46.4 °F 100% 29.31 in 2.0 mi South 23.0 mph - 0.00 in Rain Light Rain
1:11 PM 46.4 °F 38.5 °F 46.4 °F 100% 29.31 in 2.0 mi South 21.9 mph 29.9 mph 0.01 in   Overcast
1:39 PM 46.4 °F 37.9 °F 46.4 °F 100% 29.30 in 4.0 mi South 25.3 mph 33.4 mph 0.01 in   Overcast
1:53 PM 46.9 °F - 46.9 °F 100% 29.30 in 3.0 mi South 21.9 mph 29.9 mph 0.01 in Rain Light Rain
2:10 PM 46.4 °F 38.1 °F 46.4 °F 100% 29.29 in 6.0 mi SSW 24.2 mph 31.1 mph 0.00 in   Mostly Cloudy
2:38 PM 46.4 °F 39.2 °F 46.4 °F 100% 29.27 in 5.0 mi South 18.4 mph - 0.00 in   Mostly Cloudy
2:53 PM 46.9 °F - 46.0 °F 97% 29.27 in 4.0 mi South 19.6 mph - 0.00 in   Mostly Cloudy
3:25 PM 46.4 °F 39.0 °F 44.6 °F 93% 29.26 in 5.0 mi South 19.6 mph - N/A   Overcast
3:51 PM 46.4 °F 38.7 °F 46.4 °F 100% 29.25 in 5.0 mi South 20.7 mph - N/A   Mostly Cloudy
3:53 PM 46.0 °F 38.3 °F 46.0 °F 100% 29.26 in 5.0 mi South 20.7 mph - N/A   Mostly Cloudy
4:31 PM 46.4 °F 38.1 °F 44.6 °F 93% 29.24 in 5.0 mi South 24.2 mph - 0.00 in   Overcast
4:53 PM 46.9 °F - 45.0 °F 93% 29.23 in 5.0 mi South 24.2 mph - 0.00 in   Overcast
5:50 PM 46.4 °F 38.7 °F 44.6 °F 93% 29.21 in 4.0 mi SSW 20.7 mph 31.1 mph 0.00 in Rain Light Rain
5:53 PM 46.0 °F 37.6 °F 44.1 °F 93% 29.21 in 5.0 mi South 24.2 mph 31.1 mph 0.00 in Rain Light Rain
6:53 PM 46.0 °F 36.7 °F 44.1 °F 93% 29.19 in 5.0 mi SSW 29.9 mph 36.8 mph 0.00 in   Overcast
7:50 PM 44.6 °F 35.3 °F 44.6 °F 100% 29.18 in 2.5 mi SSW 26.5 mph 34.5 mph 0.00 in Rain Light Rain
7:53 PM 45.0 °F 36.4 °F 44.1 °F 97% 29.18 in 2.5 mi SSW 23.0 mph 34.5 mph 0.00 in Rain Light Rain
8:00 PM 44.6 °F 37.8 °F 44.6 °F 100% 29.17 in 2.0 mi SSW 15.0 mph 32.2 mph 0.01 in Rain Light Rain
8:06 PM 44.6 °F 35.5 °F 44.6 °F 100% 29.16 in 3.0 mi SSW 25.3 mph 34.5 mph 0.02 in Rain Light Rain
8:16 PM 44.6 °F 35.3 °F 44.6 °F 100% 29.16 in 4.0 mi SSW 26.5 mph 38.0 mph 0.02 in   Overcast
8:41 PM 44.6 °F 36.4 °F 44.6 °F 100% 29.17 in 5.0 mi SSW 20.7 mph 32.2 mph 0.02 in   Overcast
8:53 PM 45.0 °F 37.4 °F 43.0 °F 93% 29.17 in 7.0 mi SSW 18.4 mph 34.5 mph 0.02 in   Overcast
9:53 PM 45.0 °F 37.4 °F 43.0 °F 93% 29.18 in 6.0 mi SSW 18.4 mph - N/A   Overcast
10:53 PM 45.0 °F 36.4 °F 44.1 °F 97% 29.17 in 4.0 mi SSW 23.0 mph 28.8 mph 0.00 in Rain Light Rain
11:02 PM 44.6 °F 35.5 °F 44.6 °F 100% 29.16 in 4.0 mi SSW 25.3 mph - 0.01 in Rain Light Rain
11:32 PM 44.6 °F 36.1 °F 44.6 °F 100% 29.17 in 5.0 mi SW 21.9 mph - 0.01 in   Overcast
11:53 PM 45.0 °F 36.0 °F 44.1 °F 97% 29.17 in 7.0 mi SW 25.3 mph 33.4 mph 0.01 in Rain Light Rain